                ,  0.945,  1.145,  1.345,  1.545,  1.745,  1.945,  2.145,  2.345,  2.545,  2.745,  2.945,  3.145,  3.345,  3.545,  3.745,  3.945,  4.145,  4.345,  4.545,  4.745,  4.945,  5.145,  5.345,  5.545,  5.745,  5.945,  6.145,  6.345,  6.545,  6.745,  6.945,  7.145,  7.345,  7.545,  7.745,  7.945,  8.145,  8.345,  8.545,  8.745,  8.945,  9.145,  9.345,  9.545,  9.745,  9.945
2000/06/10 00:00,  999.0,  999.0,  999.0,  999.0,  999.0,  999.0,  999.0,  999.0,  999.0,  999.0,  999.0,  999.0,  999.0,  999.0,  999.0,  999.0,  999.0,  999.0,  999.0,  999.0,  999.0,  999.0,  999.0,  999.0,  999.0,  999.0,  999.0,  999.0,  999.0,  999.0,  999.0,  999.0,  999.0,  999.0,  999.0,  999.0,  999.0,  999.0,  999.0,  999.0,  999.0,  999.0,  999.0,  999.0,  999.0,  999.0
2000/06/10 00:10,    0.0,   -0.1,   -0.2,   -0.1,  999.0,    0.1,    0.3,  999.0,  999.0,    0.3,    0.4,   -0.2,   -0.2,  999.0,   -0.6,   -0.6,  999.0,  999.0,  999.0,   -0.3,  999.0,  999.0,  999.0,  999.0,  999.0,   -0.1,    0.3,   -1.0,   -1.1,   -1.1,   -1.0,   -1.0,   -1.0,   -0.9,   -0.9,   -0.9,   -0.8,   -0.8,   -0.8,   -0.8,   -0.8,   -0.7,   -0.7,   -0.8,   -0.7,   -0.7
2000/06/10 00:20,   -0.0,   -0.1,  999.0,   -0.3,  999.0,    0.0,    0.1,  999.0,  999.0,    0.3,    0.2,   -0.1,  999.0,  999.0,  999.0,  999.0,  999.0,  999.0,  999.0,   -0.0,  999.0,  999.0,  999.0,  999.0,    0.2,    0.4,    0.0,   -1.0,   -1.0,   -0.9,   -1.0,   -0.9,   -0.9,   -0.8,   -0.8,   -0.8,   -0.8,   -0.7,   -0.6,   -0.6,   -0.6,   -0.7,   -0.6,   -0.6,   -0.5,   -0.5
2000/06/10 00:30,  999.0,   -0.2,   -0.3,   -0.3,  999.0,   -0.2,  999.0,  999.0,    0.1,  999.0,  999.0,    0.0,  999.0,  999.0,  999.0,  999.0,  999.0,  999.0,  999.0,  999.0,  999.0,  999.0,  999.0,  999.0,    0.2,    0.4,   -1.0,   -1.1,   -0.9,   -0.9,   -0.9,   -0.9,   -0.9,   -0.9,   -0.9,   -0.8,   -0.8,   -0.8,   -0.7,   -0.7,   -0.7,   -0.7,   -0.7,   -0.6,   -0.5,   -0.5
2000/06/10 00:40,  999.0,   -0.0,  999.0,   -0.3,  999.0,   -0.1,  999.0,   -0.1,  999.0,  999.0,  999.0,  999.0,  999.0,  999.0,  999.0,  999.0,  999.0,  999.0,  999.0,    0.1,  999.0,  999.0,  999.0,  999.0,    0.2,    0.3,   -0.9,   -1.0,   -0.9,   -0.9,   -0.9,   -0.8,   -0.8,   -0.8,   -0.8,   -0.7,   -0.7,   -0.7,   -0.7,   -0.6,   -0.7,  999.0,   -0.6,   -0.6,   -0.6,   -0.5
2000/06/10 00:50,  999.0,  999.0,   -0.3,   -0.2,    0.0,   -0.2,   -0.2,  999.0,  999.0,  999.0,  999.0,  999.0,  999.0,  999.0,  999.0,  999.0,    0.1,  999.0,    0.1,  999.0,  999.0,  999.0,  999.0,  999.0,    0.3,    0.2,   -0.8,   -1.0,   -1.0,   -1.0,   -1.0,   -0.9,   -0.9,   -0.9,   -0.9,   -0.8,   -0.8,   -0.8,   -0.8,   -0.6,   -0.6,   -0.6,   -0.5,   -0.5,   -0.5,  999.0
2000/06/10 01:00,  999.0,   -0.3,  999.0,   -0.2,   -0.2,  999.0,  999.0,  999.0,  999.0,  999.0,  999.0,  999.0,  999.0,  999.0,  999.0,  999.0,  999.0,  999.0,  999.0,  999.0,  999.0,  999.0,  999.0,  999.0,    0.2,    0.2,   -0.7,   -0.8,   -0.9,   -0.9,   -0.8,   -0.8,   -0.8,   -0.8,   -0.7,   -0.6,   -0.6,   -0.6,   -0.6,   -0.5,   -0.4,   -0.5,   -0.5,   -0.4,   -0.5,   -0.4
2000/06/10 01:10,  999.0,  999.0,  999.0,  999.0,  999.0,   -0.0,    0.1,  999.0,  999.0,  999.0,  999.0,  999.0,  999.0,  999.0,  999.0,  999.0,  999.0,  999.0,    0.2,    0.2,  999.0,  999.0,  999.0,  999.0,    0.1,   -0.8,   -1.0,   -1.1,   -1.2,   -1.2,   -1.2,   -1.1,   -1.1,  999.0,  999.0,  999.0,  999.0,  999.0,  999.0,   -0.9,   -0.7,   -0.7,   -0.6,   -0.6,   -0.6,   -0.6
2000/06/10 01:20,  999.0,  999.0,  999.0,   -0.4,  999.0,   -0.1,   -0.1,   -0.2,  999.0,  999.0,  999.0,  999.0,  999.0,  999.0,  999.0,  999.0,  999.0,  999.0,  999.0,  999.0,  999.0,  999.0,  999.0,  999.0,   -0.2,   -0.9,   -1.2,   -1.2,   -1.3,   -1.2,   -1.2,   -1.2,   -1.1,   -1.2,   -1.2,   -1.1,   -1.1,   -1.0,   -0.9,   -0.8,   -0.9,   -0.8,   -0.7,   -0.6,   -0.5,   -0.6
2000/06/10 01:30,  999.0,  999.0,   -0.1,  999.0,  999.0,   -0.0,    0.0,    0.1,    0.3,    0.2,  999.0,  999.0,    0.1,  999.0,    0.0,   -0.1,    0.0,  999.0,  999.0,    0.1,  999.0,  999.0,  999.0,  999.0,   -0.1,   -0.8,   -1.1,   -1.2,   -1.2,   -1.2,   -1.2,   -1.1,   -1.1,   -1.1,   -1.1,   -1.1,   -1.1,   -1.2,   -1.0,   -1.0,   -0.8,   -0.8,   -0.8,   -0.7,   -0.6,   -0.6
2000/06/10 01:40,  999.0,  999.0,  999.0,   -0.4,   -0.2,   -0.2,    0.4,    0.1,    0.0,    0.3,  999.0,    0.7,    0.1,   -0.1,   -0.2,  999.0,   -0.1,  999.0,   -0.2,    0.1,  999.0,  999.0,  999.0,    0.1,  999.0,   -0.5,   -1.0,   -1.1,   -1.1,   -1.1,   -1.1,   -1.1,   -1.1,   -1.1,   -1.1,   -1.1,   -1.1,   -1.0,   -1.0,   -0.9,  999.0,   -0.7,   -0.6,   -0.7,   -0.6,   -0.6
2000/06/10 01:50,    0.3,   -0.1,   -0.2,  999.0,   -0.3,  999.0,   -0.1,   -0.1,  999.0,   -0.1,  999.0,  999.0,  999.0,    0.2,   -0.0,    0.1,    0.1,   -0.0,    0.1,   -0.1,  999.0,  999.0,  999.0,  999.0,   -0.3,   -0.6,   -0.9,   -1.1,   -1.1,   -1.1,   -1.1,   -1.1,   -1.1,   -1.1,   -1.0,   -1.0,   -1.0,   -0.9,   -0.9,   -0.9,   -0.9,   -0.7,   -0.7,   -0.6,   -0.6,   -0.5
2000/06/10 02:00,  999.0,  999.0,   -0.3,   -0.4,   -0.5,   -0.2,   -0.2,  999.0,   -0.0,  999.0,   -0.1,  999.0,   -0.1,   -0.1,  999.0,  999.0,    0.1,    0.2,    0.2,  999.0,  999.0,  999.0,  999.0,    0.1,    0.3,   -0.1,   -0.8,   -1.1,   -1.2,   -1.1,   -1.1,   -1.1,   -1.1,   -1.0,   -1.0,   -1.0,  999.0,   -0.9,   -0.9,   -0.8,   -0.9,   -0.9,  999.0,   -0.7,   -0.6,   -0.6
2000/06/10 02:10,  999.0,  999.0,   -0.0,   -0.3,  999.0,   -0.0,   -0.1,    0.2,    0.2,    0.1,  999.0,  999.0,  999.0,  999.0,  999.0,  999.0,    0.2,    0.1,  999.0,  999.0,  999.0,  999.0,  999.0,  999.0,    0.1,   -0.3,   -0.6,   -1.0,   -1.1,   -1.1,   -1.1,   -1.1,   -1.1,   -1.0,   -1.0,   -1.1,   -0.9,   -0.9,   -0.9,   -0.9,   -0.9,   -0.9,   -0.9,  999.0,   -0.8,   -0.7
2000/06/10 02:20,  999.0,  999.0,    0.0,   -0.2,  999.0,   -0.0,   -0.1,    0.0,  999.0,  999.0,  999.0,  999.0,  999.0,  999.0,  999.0,    0.1,  999.0,  999.0,    0.2,  999.0,  999.0,  999.0,  999.0,    0.2,    0.2,   -0.5,   -1.0,   -1.0,   -0.9,   -1.0,   -1.0,   -1.0,   -0.9,   -0.9,   -0.9,   -1.0,   -0.9,   -1.0,   -0.8,   -1.0,   -1.0,   -0.9,   -0.8,   -0.7,   -0.7,   -0.6
2000/06/10 02:30,    0.0,  999.0,   -0.2,   -0.2,   -0.1,   -0.1,    0.1,    0.1,  999.0,  999.0,  999.0,  999.0,  999.0,  999.0,   -0.1,  999.0,   -0.1,    0.2,   -0.1,  999.0,  999.0,    0.3,    0.3,    0.4,    0.2,   -0.5,   -1.4,   -1.2,   -1.2,   -1.2,   -1.1,   -1.1,   -1.0,   -0.9,   -1.0,   -0.9,   -1.1,   -0.9,   -1.0,   -0.9,   -0.8,   -0.9,   -1.0,   -0.9,   -0.8,   -0.9
2000/06/10 02:40,   -0.2,  999.0,   -0.2,  999.0,   -0.4,  999.0,   -0.2,  999.0,  999.0,    0.0,  999.0,    0.0,    0.1,   -0.1,  999.0,  999.0,  999.0,  999.0,  999.0,    0.1,    0.1,   -0.4,   -0.1,   -0.6,   -1.4,   -1.4,   -1.3,   -1.2,   -1.2,   -1.2,   -1.1,   -1.1,   -1.1,   -1.1,   -1.1,   -1.0,   -0.9,   -0.9,   -0.8,   -0.8,   -0.8,   -0.7,   -0.7,   -0.6,   -0.7,   -0.7
2000/06/10 02:50,  999.0,  999.0,   -0.1,   -0.1,  999.0,  999.0,    0.2,    0.2,    0.1,   -0.2,  999.0,  999.0,  999.0,    0.1,    0.4,    0.1,    0.2,    0.2,    0.3,    0.0,  999.0,   -2.8,   -2.3,   -1.9,   -1.4,   -1.3,   -1.3,   -1.1,   -1.1,   -1.1,   -1.0,   -1.0,   -1.0,   -1.0,   -1.0,   -1.0,   -0.9,   -0.9,   -0.9,   -0.8,   -0.8,   -0.8,   -0.7,   -0.6,   -0.7,   -0.6
2000/06/10 03:00,  999.0,  999.0,   -0.1,   -0.2,   -0.1,   -0.2,   -0.1,  999.0,  999.0,   -0.3,  999.0,  999.0,  999.0,   -0.2,   -0.2,   -0.2,   -0.1,   -0.1,   -0.1,   -0.2,   -0.2,   -1.6,   -1.9,   -1.7,   -1.4,   -1.4,   -1.4,   -1.4,   -1.2,   -1.2,   -1.1,   -1.1,   -1.1,   -0.9,   -0.8,   -0.8,   -0.8,   -0.8,   -0.8,   -0.7,   -0.7,   -0.7,   -0.6,   -0.7,   -0.6,   -0.7
2000/06/10 03:10,  999.0,  999.0,   -0.2,  999.0,   -0.2,   -0.0,   -0.1,  999.0,  999.0,  999.0,  999.0,  999.0,  999.0,  999.0,    0.3,    0.1,   -0.0,   -0.1,   -0.2,   -0.5,   -0.9,   -1.9,   -2.1,   -1.8,   -1.4,   -1.2,   -1.1,   -0.9,   -0.8,   -0.8,   -0.8,   -0.8,   -0.8,   -0.8,   -0.8,   -0.7,   -0.8,   -0.7,   -0.7,   -0.7,   -0.7,   -0.6,   -0.7,   -0.6,   -0.4,   -0.7
2000/06/10 03:20,  999.0,  999.0,   -0.0,  999.0,  999.0,    0.1,   -0.1,  999.0,  999.0,  999.0,  999.0,  999.0,    0.0,  999.0,   -0.0,   -0.0,   -0.3,   -0.0,   -0.1,    0.1,    0.0,   -0.9,   -1.2,   -1.4,   -1.2,   -1.2,   -1.1,   -1.0,   -1.0,   -0.9,   -0.9,   -0.8,   -0.8,   -0.7,   -0.7,   -0.7,   -0.5,   -0.5,   -0.5,   -0.4,   -0.5,   -0.5,   -0.5,   -0.4,   -0.7,  999.0
2000/06/10 03:30,  999.0,   -0.1,    0.1,   -0.0,    0.1,  999.0,  999.0,  999.0,  999.0,    0.3,  999.0,  999.0,    0.1,   -0.2,  999.0,   -0.2,   -0.2,   -0.4,   -0.3,   -0.3,    0.3,   -0.2,   -1.1,   -2.0,   -1.9,   -1.5,   -1.0,   -1.0,   -0.8,   -0.8,   -0.8,   -0.8,   -0.8,   -0.8,   -0.7,   -0.7,   -0.7,   -0.6,   -0.6,   -0.5,   -0.6,   -0.5,   -0.5,   -0.5,   -0.4,   -0.5
2000/06/10 03:40,  999.0,   -0.7,   -0.0,    0.1,    0.0,   -0.0,   -0.6,  999.0,  999.0,  999.0,  999.0,  999.0,  999.0,  999.0,   -0.2,   -0.1,   -0.2,   -0.1,    0.0,   -0.2,   -0.2,   -2.1,   -2.1,   -2.4,   -1.5,   -1.3,   -1.3,   -1.2,   -1.0,   -1.1,   -1.0,   -0.9,   -0.9,   -0.9,   -0.7,   -0.7,   -0.7,   -0.6,   -0.6,   -0.6,   -0.6,   -0.6,   -0.6,   -0.6,   -0.6,   -0.5
2000/06/10 03:50,  999.0,  999.0,   -0.0,  999.0,   -0.2,  999.0,  999.0,   -0.4,  999.0,   -0.1,  999.0,  999.0,    0.2,  999.0,  999.0,   -0.0,   -0.2,   -0.1,   -0.1,    0.0,   -0.2,   -1.6,   -2.1,   -1.8,   -1.3,   -1.3,   -1.4,   -1.2,   -1.1,   -1.1,   -1.1,   -1.0,   -1.0,   -0.9,   -0.7,   -0.7,   -0.8,   -0.8,   -0.7,   -0.8,   -0.5,   -0.6,   -0.7,   -0.8,   -0.7,   -0.5
2000/06/10 04:00,  999.0,   -0.0,   -0.1,   -0.1,    0.1,  999.0,  999.0,  999.0,  999.0,  999.0,   -0.2,   -0.1,   -0.3,   -0.2,   -0.1,    0.0,   -0.0,   -0.1,   -0.1,    0.1,   -0.4,   -0.9,   -1.8,   -1.9,   -1.6,   -1.3,   -1.2,   -1.2,   -1.2,   -1.2,   -1.2,   -1.1,   -1.1,   -1.0,   -0.9,   -1.0,   -1.0,   -0.9,   -0.8,   -0.9,   -0.8,   -0.7,   -0.9,   -0.9,   -0.9,   -0.8
2000/06/10 04:10,  999.0,   -0.2,   -0.4,   -0.1,   -0.0,  999.0,    0.1,  999.0,  999.0,    0.1,    0.1,  999.0,   -0.0,    0.1,   -0.0,   -0.3,   -0.0,   -0.1,   -0.1,    0.6,    0.1,   -0.2,   -1.3,   -1.3,   -1.6,   -1.4,   -1.2,   -1.2,   -1.1,   -1.1,   -1.0,   -0.9,   -0.8,   -0.8,   -0.8,   -0.7,   -0.7,   -0.8,   -0.6,   -0.7,   -0.7,   -0.7,   -0.6,   -0.7,   -0.6,   -0.6
2000/06/10 04:20,  999.0,  999.0,  999.0,    0.0,    0.1,   -0.2,   -0.0,    0.2,    0.2,    0.0,   -0.3,  999.0,  999.0,    0.1,    0.0,   -0.1,   -0.1,   -0.0,  999.0,    0.6,    0.4,   -0.3,   -1.1,   -1.7,   -2.2,   -1.7,   -1.4,   -1.3,   -1.2,   -1.1,   -1.1,   -1.1,   -1.0,   -0.9,   -0.9,   -0.9,   -0.9,   -0.8,   -0.7,   -0.7,   -0.7,   -0.7,   -0.7,   -0.6,   -0.5,   -0.5
2000/06/10 04:30,   -0.4,   -0.0,   -0.1,   -0.1,  999.0,    0.0,   -0.1,   -0.2,   -0.2,   -0.2,   -0.4,   -0.4,   -0.3,   -0.3,   -0.3,   -0.2,   -0.3,   -0.1,   -0.2,    0.4,    0.1,    0.6,    0.1,   -1.9,   -1.7,   -1.5,   -1.3,   -1.3,   -1.2,   -1.2,   -1.2,   -1.3,   -1.0,   -1.1,   -1.0,   -0.9,   -0.9,   -0.9,   -0.8,   -0.8,   -0.7,   -0.8,   -0.7,   -0.7,   -0.8,   -0.6
2000/06/10 04:40,  999.0,  999.0,    0.0,  999.0,  999.0,   -0.1,   -0.0,  999.0,   -0.1,   -0.2,   -0.3,   -0.5,   -0.4,  999.0,  999.0,   -0.5,    0.0,    0.3,   -0.4,   -1.5,   -3.1,   -3.3,   -2.4,   -2.0,   -1.9,   -1.4,   -1.3,   -1.2,   -1.2,   -1.2,   -1.0,   -1.1,   -1.1,   -1.2,   -1.0,   -0.9,   -0.9,   -0.9,   -0.8,   -0.7,   -0.7,   -0.7,   -0.7,   -0.7,   -0.8,   -0.7
2000/06/10 04:50,  999.0,  999.0,    0.0,  999.0,  999.0,  999.0,    0.1,    0.2,   -0.1,    0.0,   -0.3,   -0.1,   -0.2,   -0.4,   -0.4,   -0.2,    0.0,   -0.2,   -2.2,   -2.7,   -3.0,   -3.1,   -2.3,   -1.9,   -1.4,   -1.4,   -1.2,   -1.1,   -1.0,   -0.9,   -1.0,   -1.0,   -1.0,   -0.8,   -0.7,   -0.7,   -0.8,   -0.7,   -0.7,   -0.7,   -0.7,   -0.7,   -0.6,   -0.7,   -0.6,   -0.5
2000/06/10 05:00,  999.0,  999.0,    0.1,   -0.0,    0.1,  999.0,  999.0,    0.2,  999.0,    0.1,    0.1,   -0.0,    0.1,  999.0,    0.1,    0.2,   -0.2,   -0.4,   -1.3,   -1.1,   -0.7,   -1.7,   -1.4,   -1.3,   -1.1,   -1.0,   -1.0,   -1.0,   -0.9,   -0.8,   -0.9,   -0.8,   -0.8,   -0.7,   -0.7,   -0.7,   -0.7,   -0.7,   -0.7,   -0.6,   -0.6,   -0.6,   -0.6,   -0.6,   -0.6,   -0.5
2000/06/10 05:10,   -0.1,  999.0,   -0.0,    0.1,   -0.2,  999.0,    0.1,    0.2,    0.2,    0.1,    0.0,  999.0,   -0.2,   -0.2,   -0.2,   -0.3,    0.4,    0.4,   -0.7,   -1.4,   -2.0,   -1.3,   -1.5,   -1.3,   -1.2,   -1.2,   -1.2,   -1.2,   -1.1,   -1.1,   -1.0,   -1.0,   -0.9,   -0.9,   -0.7,   -0.8,   -0.7,   -0.7,   -0.6,   -0.7,   -0.6,   -0.6,   -0.5,   -0.5,   -0.5,   -0.4
2000/06/10 05:20,    0.0,    0.2,    0.2,    0.4,    0.0,    0.1,    0.0,    0.3,    0.0,    0.1,   -0.1,  999.0,  999.0,   -0.1,  999.0,   -0.3,   -0.2,    0.1,   -1.5,   -2.1,   -1.9,   -1.7,   -1.5,   -1.2,   -1.2,   -1.2,   -1.1,   -1.1,   -1.1,   -1.0,  999.0,   -1.1,   -1.0,   -1.0,   -0.9,   -0.9,   -0.8,   -0.7,   -0.8,   -0.7,   -0.7,   -0.7,   -0.6,   -0.6,   -0.6,   -0.6
2000/06/10 05:30,   -0.1,   -0.0,   -0.1,   -0.1,   -0.1,   -0.3,   -0.1,  999.0,  999.0,  999.0,   -0.3,   -0.2,   -0.5,  999.0,   -0.3,   -0.2,    0.0,   -0.7,   -2.4,   -2.1,   -2.2,   -2.0,   -1.7,   -1.4,   -1.3,   -1.3,   -1.2,   -1.1,   -1.2,   -1.1,   -1.1,   -1.1,   -1.1,   -1.0,   -0.9,   -0.9,   -0.9,   -0.9,   -0.9,   -0.8,   -0.7,   -0.7,   -0.7,   -0.6,   -0.5,   -0.6
2000/06/10 05:40,  999.0,   -0.4,   -0.1,   -0.3,   -0.3,   -0.2,   -0.1,   -0.0,   -0.2,   -0.2,  999.0,    0.0,   -0.1,  999.0,  999.0,   -0.1,    0.1,   -0.8,   -2.2,   -2.2,   -2.5,   -1.9,   -1.3,   -1.1,   -1.2,   -1.2,   -1.1,   -1.0,   -1.0,   -1.0,   -0.9,   -0.9,   -0.8,   -0.7,   -0.8,   -0.8,   -0.7,   -0.7,   -0.7,   -0.6,   -0.7,   -0.6,   -0.6,   -0.6,   -0.5,   -0.5
2000/06/10 05:50,   -0.2,  999.0,  999.0,   -0.2,   -0.2,   -0.1,  999.0,   -0.3,   -0.3,   -0.2,   -0.4,  999.0,    0.2,   -0.1,   -0.0,    0.0,    0.2,    0.3,   -1.2,   -2.2,   -1.8,   -1.9,   -1.2,   -1.3,   -1.3,   -1.2,   -1.1,   -1.0,   -1.0,   -0.9,   -1.0,   -0.9,  999.0,   -0.8,   -0.8,   -0.7,   -0.7,   -0.7,   -0.6,   -0.6,   -0.5,   -0.5,   -0.4,   -0.4,   -0.4,   -0.3
2000/06/10 06:00,    0.1,  999.0,    0.0,   -0.0,   -0.0,   -0.1,   -0.0,   -0.0,   -0.0,    0.0,    0.3,  999.0,    0.1,   -0.1,   -0.2,    0.0,    0.0,   -0.7,   -1.1,   -2.0,   -1.7,   -1.2,   -1.2,   -1.1,   -1.2,   -1.1,   -1.1,   -1.0,   -0.9,   -0.9,   -1.0,   -0.8,   -0.8,   -0.8,   -0.8,   -0.6,   -0.6,   -0.5,   -0.6,   -0.5,   -0.5,   -0.5,   -0.4,   -0.5,   -0.5,   -0.5
2000/06/10 06:10,   -0.1,   -0.2,   -0.3,   -0.2,   -0.4,   -0.3,   -0.3,   -0.2,   -0.3,   -0.0,  999.0,  999.0,    0.1,  999.0,   -0.0,   -0.1,   -0.1,   -1.0,   -0.8,   -1.6,   -1.3,   -1.2,   -1.5,   -1.3,   -1.6,   -1.1,   -0.7,   -0.8,   -0.9,   -0.8,   -0.9,   -0.9,   -0.9,   -0.8,   -0.9,   -0.9,   -0.8,   -0.7,   -0.7,   -0.8,   -0.8,   -0.8,   -0.9,   -0.8,   -0.8,   -0.7
2000/06/10 06:20,    0.1,  999.0,  999.0,   -0.2,   -0.1,  999.0,    0.0,   -0.1,   -0.2,   -0.1,    0.0,    0.2,   -0.3,   -0.3,   -0.2,   -0.2,    0.0,   -0.8,   -0.6,   -0.3,   -0.2,   -0.3,   -0.4,   -1.1,   -1.4,   -1.2,   -1.4,   -1.2,   -1.2,   -1.2,   -1.2,   -1.1,   -1.1,   -1.1,   -1.0,   -1.0,   -0.8,   -0.8,   -0.8,   -0.7,   -0.7,   -0.8,   -0.7,   -0.8,   -0.7,   -0.6
2000/06/10 06:30,  999.0,   -0.0,  999.0,   -0.2,  999.0,   -0.2,   -0.3,   -0.1,  999.0,  999.0,   -0.1,   -0.2,   -0.0,  999.0,  999.0,   -0.2,  999.0,  999.0,  999.0,   -0.2,   -0.1,   -0.8,  999.0,   -1.4,   -1.5,   -1.4,   -1.2,   -1.2,   -1.1,   -1.0,   -1.1,   -1.1,   -1.1,   -1.1,   -0.9,   -0.8,   -0.8,   -0.7,   -0.7,   -0.7,   -0.7,   -0.6,   -0.6,   -0.7,   -0.7,   -0.6
2000/06/10 06:40,   -0.0,   -0.1,   -0.1,  999.0,   -0.4,   -0.2,  999.0,  999.0,   -0.2,  999.0,    0.1,   -0.2,  999.0,   -0.3,  999.0,   -0.0,  999.0,  999.0,   -0.1,   -0.0,   -0.9,   -1.0,   -1.1,   -1.4,   -1.5,   -1.5,   -1.5,   -1.4,   -1.3,   -1.2,   -1.1,   -1.1,   -1.1,   -1.1,   -0.9,   -0.7,   -0.7,   -0.7,   -0.7,   -0.7,   -0.7,   -0.8,   -0.7,   -0.6,   -0.6,   -0.6
2000/06/10 06:50,    0.2,   -0.0,   -0.1,  999.0,   -0.1,   -0.0,  999.0,  999.0,  999.0,  999.0,   -0.0,  999.0,   -0.4,   -0.2,  999.0,   -0.2,  999.0,  999.0,   -0.1,    0.1,  999.0,  999.0,   -0.6,  999.0,   -1.0,   -1.5,   -1.5,   -1.3,   -1.2,   -1.1,   -1.1,   -1.0,   -1.1,   -1.0,   -0.9,   -0.9,   -0.9,   -0.8,   -0.7,   -0.7,   -0.7,   -0.6,   -0.6,   -0.6,   -0.6,   -0.6
2000/06/10 07:00,   -0.1,  999.0,  999.0,   -0.0,  999.0,  999.0,  999.0,  999.0,  999.0,   -0.0,  999.0,   -0.0,   -0.3,   -0.3,   -0.3,   -0.2,   -0.1,  999.0,   -0.1,  999.0,  999.0,  999.0,  999.0,  999.0,  999.0,   -1.1,   -1.3,   -1.5,   -1.3,   -1.1,   -1.1,   -1.0,   -1.2,   -1.1,   -1.0,   -1.0,   -0.9,   -0.8,   -0.8,   -0.8,   -0.8,   -0.8,   -0.7,   -0.6,   -0.6,   -0.5
2000/06/10 07:10,    0.0,   -0.1,  999.0,   -0.1,  999.0,   -0.2,   -0.2,   -0.2,  999.0,   -0.2,   -0.0,   -0.1,   -0.3,  999.0,   -0.1,   -0.2,   -0.1,   -0.0,    0.1,    0.3,    0.1,    0.3,  999.0,    0.1,  999.0,  999.0,   -0.5,   -1.1,   -1.3,   -1.2,   -1.1,   -1.1,   -1.2,   -1.1,   -1.1,   -1.0,   -0.9,   -0.9,   -0.9,   -0.8,   -0.8,   -0.8,   -0.8,   -0.7,   -0.7,   -0.7
2000/06/10 07:20,    0.1,  999.0,  999.0,  999.0,  999.0,  999.0,   -0.2,   -0.1,  999.0,  999.0,   -0.2,   -0.2,   -0.4,   -0.2,   -0.3,  999.0,   -0.2,   -0.1,   -0.0,   -0.1,   -0.0,   -0.0,  999.0,   -0.2,  999.0,  999.0,   -0.9,   -1.1,   -1.1,   -1.2,   -1.1,   -1.1,   -0.8,   -0.8,   -0.8,   -0.7,   -0.7,   -0.8,   -0.7,   -0.8,   -0.7,   -0.6,   -0.6,   -0.6,   -0.5,   -0.5
2000/06/10 07:30,    0.1,   -0.1,  999.0,   -0.1,  999.0,   -0.3,   -0.4,  999.0,   -0.3,   -0.3,   -0.2,   -0.2,   -0.3,   -0.3,   -0.3,  999.0,  999.0,   -0.1,  999.0,   -0.2,   -0.3,  999.0,  999.0,  999.0,  999.0,  999.0,   -1.0,   -1.2,   -1.1,   -1.3,   -1.4,   -1.4,   -1.4,   -1.4,   -1.2,   -1.0,   -0.9,   -0.9,   -0.9,   -0.8,   -0.8,   -0.8,   -0.8,   -0.8,   -0.8,   -0.8
2000/06/10 07:40,    0.1,    0.1,  999.0,   -0.0,  999.0,  999.0,   -0.0,   -0.1,  999.0,   -0.2,  999.0,   -0.3,   -0.3,   -0.3,   -0.3,   -0.3,  999.0,  999.0,   -0.3,   -0.2,  999.0,   -0.2,   -0.1,  999.0,  999.0,  999.0,   -0.3,   -0.5,   -1.0,   -1.1,   -1.2,   -1.2,   -1.2,   -1.2,   -1.1,   -1.1,   -1.1,   -1.0,   -0.9,   -0.9,   -0.8,   -0.8,   -0.7,   -0.8,   -0.7,   -0.8
2000/06/10 07:50,    0.1,   -0.1,  999.0,  999.0,   -0.3,   -0.1,   -0.1,   -0.2,   -0.3,   -0.3,   -0.2,  999.0,   -0.3,   -0.3,   -0.3,   -0.5,  999.0,  999.0,  999.0,   -0.1,   -0.1,    0.0,   -0.0,  999.0,  999.0,    0.1,   -0.2,   -0.5,   -0.7,   -1.1,   -1.1,   -1.2,   -1.3,   -1.2,   -1.3,   -1.2,   -1.2,   -1.1,   -1.1,   -1.1,   -1.0,   -1.0,   -1.1,   -0.9,   -0.8,   -0.8
2000/06/10 08:00,  999.0,   -0.2,   -0.0,   -0.1,  999.0,   -0.1,   -0.1,  999.0,   -0.1,  999.0,  999.0,  999.0,  999.0,   -0.2,   -0.2,   -0.2,   -0.3,   -0.5,   -0.2,   -0.2,  999.0,   -0.2,   -0.2,    0.1,   -0.0,   -0.6,   -0.8,   -0.8,   -1.0,   -1.0,   -1.1,   -1.1,   -1.0,   -1.0,   -1.0,   -1.0,   -1.1,   -1.1,   -1.0,   -0.9,   -1.0,   -0.9,   -0.8,   -0.7,   -0.7,   -0.7
2000/06/10 08:10,   -0.1,   -0.2,   -0.1,   -0.3,   -0.3,  999.0,  999.0,  999.0,  999.0,    0.0,  999.0,  999.0,   -0.0,  999.0,  999.0,   -0.1,   -0.2,  999.0,  999.0,   -0.1,   -0.1,   -0.2,  999.0,   -0.5,   -0.3,   -0.7,   -1.0,   -1.1,   -1.1,   -1.0,   -1.0,   -1.1,   -1.0,   -1.0,   -0.9,   -0.8,   -0.7,   -0.7,   -0.7,   -0.7,   -0.8,   -0.7,   -0.7,   -0.7,   -0.7,   -0.7
2000/06/10 08:20,   -0.1,   -0.0,   -0.0,   -0.1,   -0.1,   -0.1,   -0.1,  999.0,  999.0,  999.0,  999.0,   -0.0,  999.0,  999.0,   -0.2,   -0.1,  999.0,   -0.1,  999.0,  999.0,  999.0,   -0.0,   -0.3,   -0.0,    0.0,   -0.0,   -0.2,   -0.6,   -0.8,   -0.8,   -0.8,   -0.7,   -0.7,   -0.6,   -0.6,   -0.6,   -0.5,   -0.6,   -0.7,   -0.6,   -0.6,   -0.6,   -0.6,   -0.6,   -0.6,   -0.5
2000/06/10 08:30,    0.1,  999.0,  999.0,    0.0,    0.0,    0.0,  999.0,    0.2,  999.0,   -0.1,  999.0,  999.0,  999.0,  999.0,  999.0,    0.0,  999.0,   -0.0,  999.0,   -0.1,  999.0,    0.0,  999.0,   -0.0,   -0.0,    0.1,    0.0,   -0.4,   -1.0,   -0.9,   -0.8,   -0.6,   -0.6,   -0.6,   -0.6,   -0.6,   -0.5,   -0.5,   -0.6,   -0.5,   -0.5,   -0.6,   -0.6,   -0.6,   -0.6,   -0.6
2000/06/10 08:40,  999.0,   -0.0,  999.0,   -0.1,   -0.0,   -0.1,   -0.2,   -0.1,  999.0,   -0.2,  999.0,   -0.2,   -0.2,   -0.2,   -0.2,  999.0,  999.0,    0.0,   -0.1,    0.1,  999.0,  999.0,  999.0,  999.0,    0.1,    0.2,    0.1,   -0.3,   -0.4,   -0.8,   -0.6,   -0.6,   -0.5,   -0.5,   -0.4,   -0.4,   -0.4,   -0.5,   -0.6,   -0.5,   -0.5,   -0.6,   -0.5,   -0.6,   -0.7,   -0.6
2000/06/10 08:50,    0.2,    0.2,  999.0,   -0.1,   -0.0,   -0.0,   -0.1,   -0.1,   -0.1,   -0.1,  999.0,  999.0,  999.0,   -0.4,   -0.2,  999.0,   -0.2,   -0.1,    0.0,    0.0,    0.1,  999.0,  999.0,    0.2,    0.2,    0.3,   -0.3,   -0.8,   -1.1,   -1.0,   -1.0,   -0.7,   -0.6,   -0.6,   -0.6,   -0.6,   -0.5,   -0.5,   -0.5,   -0.4,   -0.5,   -0.6,   -0.7,   -0.5,   -0.6,   -0.6
2000/06/10 09:00,  999.0,  999.0,   -0.1,   -0.2,    0.1,    0.1,  999.0,  999.0,   -0.2,   -0.1,   -0.1,    0.1,    0.1,  999.0,  999.0,    0.1,   -0.0,    0.1,  999.0,    0.2,    0.1,  999.0,  999.0,   -0.1,    0.5,    0.4,    0.0,   -0.7,   -0.8,   -0.9,   -0.9,   -0.8,   -0.8,   -0.6,   -0.5,   -0.7,   -0.5,   -0.6,   -0.4,   -0.5,   -0.5,   -0.6,   -0.6,   -0.6,   -0.7,   -0.6
2000/06/10 09:10,   -0.4,    0.3,   -0.4,   -0.0,    0.0,    0.0,   -0.1,  999.0,  999.0,    0.0,  999.0,    0.0,  999.0,  999.0,    0.1,  999.0,  999.0,  999.0,  999.0,  999.0,    0.0,   -0.0,   -0.0,    0.0,   -0.6,   -1.3,   -1.0,   -1.1,   -1.0,   -1.0,   -1.1,   -1.0,   -1.0,   -0.9,   -0.9,   -0.9,   -0.8,   -0.7,   -0.7,   -0.7,   -0.7,   -0.7,   -0.7,   -0.5,   -0.6,   -0.6
2000/06/10 09:20,   -0.2,   -0.4,    0.1,   -0.0,   -0.5,    0.0,    0.0,    0.1,    0.0,    0.1,  999.0,   -0.1,   -0.1,  999.0,  999.0,  999.0,   -0.2,   -0.1,  999.0,   -0.0,    0.1,   -0.1,   -0.2,   -0.1,   -1.0,   -1.7,   -1.4,   -1.2,   -1.0,   -0.9,   -0.9,   -0.8,   -0.7,   -0.7,   -0.7,   -0.7,   -0.7,   -0.6,   -0.7,   -0.6,   -0.8,   -0.7,   -0.6,   -0.5,   -0.6,   -0.6
2000/06/10 09:30,   -0.1,   -0.5,   -0.3,   -0.2,    0.1,   -0.0,   -0.0,    0.3,   -0.1,  999.0,  999.0,   -0.0,   -0.1,    0.0,    0.0,  999.0,  999.0,  999.0,  999.0,    0.1,    0.1,   -0.3,   -0.2,   -0.7,   -0.9,   -0.8,   -1.0,   -0.9,   -0.9,   -0.9,   -0.9,   -0.7,   -0.7,   -0.7,   -0.7,   -0.7,   -0.7,   -0.6,   -0.6,   -0.7,   -0.7,   -0.7,   -0.6,   -0.7,   -0.6,   -0.7
2000/06/10 09:40,    0.2,   -0.1,   -0.6,   -0.3,   -0.3,   -0.1,    0.0,   -0.0,    0.4,    0.2,  999.0,    0.2,   -0.0,  999.0,    0.2,    0.4,  999.0,  999.0,    0.6,    0.4,    0.2,    0.1,    0.1,    0.1,    0.2,   -0.5,   -1.0,   -0.9,   -0.8,   -0.7,   -0.6,   -0.3,   -0.5,   -0.6,   -0.7,   -0.7,   -0.6,   -0.5,   -0.5,   -0.5,   -0.6,   -0.4,   -0.7,   -0.4,   -0.7,   -0.6
2000/06/10 09:50,    0.3,    0.1,   -0.3,   -0.4,   -0.4,   -0.1,   -0.0,    0.3,    0.3,    0.4,    0.4,    0.3,    0.3,    0.3,    0.3,    0.4,  999.0,    0.3,  999.0,  999.0,  999.0,    0.3,    0.2,    0.3,    0.3,    0.1,   -0.2,   -0.8,   -0.9,   -0.8,   -0.7,   -0.6,   -0.6,   -0.6,   -0.6,   -0.6,   -0.7,   -0.6,   -0.5,   -0.5,   -0.5,   -0.5,   -0.6,   -0.6,   -0.5,   -0.6
2000/06/10 10:00,  999.0,  999.0,   -0.1,   -0.2,   -0.4,   -0.2,   -0.0,  999.0,    0.0,  999.0,    0.2,    0.1,  999.0,  999.0,  999.0,  999.0,  999.0,  999.0,    0.2,  999.0,  999.0,  999.0,    0.1,    0.2,    0.0,   -0.3,   -0.9,   -0.8,   -0.8,   -0.8,   -0.7,   -0.7,   -0.8,   -0.6,   -0.7,   -0.7,   -0.7,   -0.7,   -0.6,   -0.7,   -0.7,   -0.7,   -0.8,   -0.7,   -0.7,   -0.6
2000/06/10 10:10,   -0.1,   -0.2,    0.0,   -0.0,   -0.0,    0.0,   -0.0,   -0.0,   -0.1,  999.0,  999.0,    0.1,  999.0,    0.2,  999.0,   -0.0,    0.4,    0.3,    0.3,    0.1,  999.0,    0.2,    0.2,    0.3,    0.3,    0.3,   -0.1,   -0.6,   -0.8,   -0.7,   -0.7,   -0.6,   -0.7,   -0.7,   -0.7,   -0.6,   -0.7,   -0.7,   -0.4,   -0.6,   -0.6,   -0.5,   -0.8,   -0.6,   -0.6,   -0.7
2000/06/10 10:20,  999.0,   -0.6,  999.0,   -0.2,  999.0,   -0.1,   -0.1,  999.0,    0.0,   -0.0,    0.0,  999.0,    0.2,  999.0,    0.2,    0.3,    0.4,    0.4,    0.3,    0.3,  999.0,    0.4,    0.3,    0.1,   -0.2,   -0.8,   -1.0,   -1.0,   -0.9,   -0.8,   -0.6,   -0.7,   -0.7,   -0.7,   -0.7,   -0.7,   -0.7,   -0.6,   -0.5,   -0.5,   -0.5,   -0.3,   -0.5,   -0.4,   -0.3,   -0.4
2000/06/10 10:30,   -0.2,   -0.0,    0.1,   -0.0,   -0.1,   -0.1,  999.0,  999.0,  999.0,    0.3,  999.0,  999.0,  999.0,    0.1,  999.0,    0.3,    0.3,    0.4,    0.5,    0.5,    0.5,    0.6,    0.4,    0.2,   -0.4,   -0.5,   -0.7,   -0.7,   -0.8,   -0.6,   -0.5,   -0.5,   -0.5,   -0.7,   -0.6,   -0.6,   -0.8,   -0.6,   -0.6,   -0.5,   -0.4,   -0.5,   -0.4,   -0.4,   -0.4,   -0.5
2000/06/10 10:40,    0.0,   -0.1,   -0.0,    0.0,   -0.0,    0.1,   -0.1,   -0.2,   -0.0,  999.0,  999.0,   -0.1,  999.0,    0.3,  999.0,    0.3,    0.3,    0.3,    0.3,    0.1,    0.0,   -0.4,   -0.2,   -0.6,   -0.8,   -0.8,   -0.8,   -0.7,   -0.9,   -0.9,   -0.9,   -0.9,   -0.9,   -0.8,   -0.9,   -0.8,   -0.7,   -0.7,   -0.6,   -0.7,   -0.7,   -0.7,   -0.7,   -0.6,   -0.7,   -0.6
2000/06/10 10:50,   -0.2,   -0.1,   -0.4,  999.0,  999.0,   -0.1,   -0.1,   -0.1,   -0.0,    0.0,   -0.1,   -0.1,   -0.2,   -0.2,  999.0,   -0.0,    0.1,   -0.1,   -0.1,   -0.0,   -0.1,   -0.4,   -0.6,   -1.0,   -1.2,   -1.2,   -1.1,   -1.1,   -1.0,   -0.9,   -0.8,   -0.9,   -0.9,   -1.0,   -0.9,   -0.9,   -0.9,   -0.8,   -0.8,   -0.7,   -0.8,   -0.7,   -0.7,   -0.7,   -0.7,   -0.6
2000/06/10 11:00,  999.0,   -0.3,    0.9,  999.0,   -0.1,   -0.2,   -0.1,   -0.3,   -0.2,   -0.2,   -0.2,   -0.4,   -0.2,   -0.2,   -0.2,   -0.1,   -0.2,   -0.1,   -0.5,   -0.2,   -0.0,   -0.1,   -0.5,   -0.7,   -1.4,   -1.1,   -1.1,   -1.0,   -0.9,   -0.9,   -0.9,   -0.9,   -0.9,   -0.9,   -0.9,   -0.9,   -0.9,   -0.8,   -0.8,   -0.7,   -0.7,   -0.7,   -0.7,   -0.7,   -0.7,   -0.6
2000/06/10 11:10,    0.0,  999.0,  999.0,   -0.4,  999.0,    0.1,   -0.3,   -0.4,   -0.1,    0.1,   -0.1,   -0.4,    0.1,   -0.4,   -0.0,   -0.0,   -0.1,   -0.2,   -0.5,   -0.7,   -1.5,   -2.4,   -2.5,  999.0,   -1.7,   -1.3,   -1.3,   -1.1,   -1.0,   -1.1,   -1.0,   -1.0,   -1.1,   -1.0,   -1.1,   -1.0,   -1.0,   -1.0,   -0.9,   -0.9,   -0.8,   -0.7,   -0.7,   -0.7,   -0.7,   -0.6
2000/06/10 11:20,   -0.1,  999.0,   -0.2,  999.0,  999.0,   -0.3,   -0.4,   -0.3,   -0.2,    0.2,  999.0,  999.0,   -0.1,   -0.2,    0.3,    0.3,  999.0,   -0.1,    0.2,   -0.2,   -0.2,   -1.4,   -2.0,   -1.7,   -1.4,   -1.4,   -1.3,   -1.2,   -1.2,   -1.2,   -1.2,   -1.2,   -1.2,   -1.2,   -1.1,   -1.1,   -1.0,   -0.9,   -0.9,   -0.8,   -0.7,   -0.6,   -0.6,   -0.6,   -0.6,   -0.5
2000/06/10 11:30,  999.0,    0.1,    0.4,    0.3,   -0.1,  999.0,   -0.2,   -0.1,   -0.3,   -0.5,  999.0,  999.0,   -0.3,   -0.3,   -0.1,   -0.4,   -0.2,   -0.0,   -0.3,    0.4,   -0.1,   -1.1,   -1.8,   -1.4,   -1.4,   -1.3,   -1.3,   -1.3,   -1.3,   -1.2,   -1.2,   -1.3,   -1.2,   -1.1,   -1.0,   -0.9,   -0.9,   -0.8,   -0.7,   -0.8,   -0.7,   -0.7,   -0.6,   -0.6,   -0.5,   -0.6
2000/06/10 11:40,  999.0,    0.3,    0.3,  999.0,  999.0,   -0.0,   -0.2,   -0.1,   -0.2,   -0.3,  999.0,   -0.2,   -0.1,  999.0,  999.0,   -0.5,   -0.1,   -0.1,    0.1,    0.2,    0.0,    0.4,   -0.5,   -1.8,   -1.5,   -1.2,   -1.1,   -1.0,   -1.0,   -0.9,   -0.9,   -0.8,   -0.9,   -1.0,   -0.9,   -0.8,   -0.9,   -0.8,   -0.7,   -0.6,   -0.6,   -0.6,   -0.5,   -0.6,   -0.6,   -0.6
2000/06/10 11:50,  999.0,   -0.3,    0.2,   -0.0,    0.2,    0.1,    0.1,    0.1,    0.1,    0.2,  999.0,  999.0,  999.0,   -0.1,    0.4,  999.0,    0.3,    0.4,  999.0,    0.5,    0.1,   -0.4,   -1.4,   -1.7,   -1.4,   -0.8,   -1.2,   -1.2,   -1.1,   -0.9,   -0.9,   -1.0,   -0.9,   -0.8,   -0.8,   -0.7,   -0.7,   -0.7,   -0.6,   -0.4,   -0.4,   -0.4,   -0.4,   -0.4,   -0.4,   -0.4
2000/06/10 12:00,    0.2,    0.1,  999.0,    0.1,  999.0,    0.5,    0.2,    0.2,  999.0,    0.1,   -0.1,   -0.1,   -0.1,   -0.2,    0.1,    0.0,    0.1,  999.0,   -0.3,   -0.7,    0.6,   -1.7,   -1.9,   -2.2,   -1.7,   -1.3,   -1.1,   -1.1,   -1.1,   -1.1,   -1.2,   -1.2,   -1.1,   -1.0,   -0.9,   -0.8,   -0.8,   -0.7,   -0.7,   -0.7,   -0.6,   -0.7,   -0.6,   -0.7,   -0.6,   -0.6
2000/06/10 12:10,   -0.1,   -0.5,  999.0,   -0.7,   -0.2,  999.0,    0.0,   -0.1,   -0.1,  999.0,   -0.0,   -0.1,   -0.2,   -0.0,    0.1,   -0.0,    0.2,    0.3,    0.3,    0.2,   -1.6,   -1.9,   -1.8,   -1.6,   -1.3,   -1.3,   -1.1,   -1.1,   -1.0,   -1.1,   -1.1,   -1.1,   -1.2,   -1.2,   -1.3,   -1.1,   -1.0,   -1.0,   -0.9,   -0.8,   -0.9,   -0.8,   -0.7,   -0.7,   -0.6,   -0.6
2000/06/10 12:20,  999.0,   -0.5,  999.0,   -0.0,    0.0,   -0.0,  999.0,   -0.2,  999.0,  999.0,    0.1,  999.0,  999.0,    0.5,    0.2,    0.1,    0.1,    0.0,   -0.1,   -0.3,   -1.1,   -1.4,   -1.8,   -1.7,   -1.3,   -1.2,   -1.2,   -1.1,   -1.2,   -1.1,   -1.1,   -1.1,   -1.0,   -1.1,   -1.1,   -1.0,   -1.0,   -1.0,   -1.0,   -0.9,   -0.9,   -0.8,   -0.7,   -0.6,   -0.6,   -0.6
2000/06/10 12:30,  999.0,    0.0,  999.0,  999.0,   -0.2,   -0.1,  999.0,  999.0,  999.0,    0.1,  999.0,  999.0,    0.2,    0.0,    0.3,    0.2,    0.2,    0.4,    0.0,   -0.6,   -0.9,   -1.3,   -1.5,   -1.2,   -1.3,   -1.2,   -1.1,   -1.0,   -1.0,   -1.1,   -1.1,   -1.1,   -1.1,   -1.1,   -1.1,   -1.0,   -1.1,   -0.9,   -0.9,   -0.9,   -0.9,   -0.8,   -0.8,   -0.7,   -0.7,   -0.7
2000/06/10 12:40,  999.0,  999.0,   -0.4,  999.0,  999.0,   -0.4,   -0.2,   -0.6,  999.0,   -0.2,  999.0,  999.0,    0.2,  999.0,   -0.1,   -0.2,   -0.2,   -0.1,   -0.5,   -1.6,   -1.3,   -1.3,   -1.3,   -1.3,   -1.3,   -1.1,   -1.1,   -1.1,   -1.1,   -1.1,   -1.1,   -1.1,   -1.1,   -1.1,   -1.1,   -1.0,   -0.9,   -0.8,   -0.7,   -0.6,   -0.6,   -0.6,   -0.6,   -0.6,   -0.7,   -0.6
2000/06/10 12:50,  999.0,  999.0,  999.0,  999.0,    0.1,    0.1,    0.1,  999.0,    0.1,    0.1,    0.1,  999.0,   -0.0,   -0.5,   -0.3,    0.3,   -0.2,   -0.2,   -0.3,   -1.7,   -1.4,   -1.5,   -1.5,   -1.4,   -1.3,   -1.3,   -1.2,   -1.1,   -1.0,   -1.0,   -1.0,   -1.0,   -0.9,   -0.9,   -0.9,   -0.8,   -0.8,   -0.7,   -0.7,   -0.6,   -0.5,   -0.6,   -0.6,   -0.6,   -0.6,   -0.6
2000/06/10 13:00,  999.0,  999.0,   -0.0,    0.1,    0.2,    0.1,    0.2,    0.2,  999.0,    0.2,   -0.0,   -0.2,    0.1,   -0.1,   -0.1,    0.1,   -0.0,    0.1,   -0.1,   -1.1,   -1.7,   -1.9,   -1.4,   -1.2,   -1.2,   -1.3,   -1.2,   -1.1,   -1.1,   -1.1,   -1.0,   -1.0,   -1.0,   -0.9,   -1.0,   -0.9,   -0.7,   -0.7,   -0.8,   -0.7,   -0.7,   -0.7,   -0.7,   -0.6,   -0.7,   -0.7
2000/06/10 13:10,  999.0,  999.0,  999.0,    0.1,   -0.1,   -0.1,   -0.3,   -0.4,   -0.2,  999.0,    0.6,    0.3,    0.4,    0.6,    0.4,    0.5,    0.1,    0.4,    0.1,   -0.7,   -1.8,   -1.3,   -1.3,   -1.4,   -1.3,   -1.4,   -1.3,   -1.3,   -1.3,   -1.3,   -1.2,   -1.2,   -1.2,   -1.1,   -1.1,   -1.0,   -1.0,   -0.9,   -0.9,   -0.9,   -0.7,  999.0,   -0.8,   -0.8,   -0.7,   -0.7
2000/06/10 13:20,   -0.1,  999.0,  999.0,   -0.1,  999.0,   -0.3,   -0.5,   -0.6,    0.2,  999.0,    0.3,    0.2,    0.3,    0.3,    0.8,    0.4,    0.2,   -0.8,   -1.5,   -1.7,   -1.5,   -1.4,   -1.5,   -1.5,   -1.4,   -1.2,   -1.2,   -1.2,   -1.3,   -1.2,   -1.1,   -1.1,   -1.2,   -1.1,   -1.1,   -1.0,   -1.2,   -1.1,   -1.0,   -1.0,   -1.0,   -0.9,   -0.9,   -0.8,   -0.7,   -0.7
2000/06/10 13:30,  999.0,   -0.0,  999.0,    0.1,    0.3,    0.0,   -0.1,   -0.0,  999.0,  999.0,   -0.4,   -0.6,   -0.6,   -0.0,   -0.0,   -0.4,   -0.5,   -1.3,   -1.6,   -1.7,   -1.5,   -1.5,   -1.2,   -1.2,   -1.3,   -1.3,   -1.1,   -1.1,   -1.2,   -1.2,   -1.2,   -1.2,   -1.2,   -1.1,   -1.1,   -1.1,   -1.1,  999.0,   -1.1,   -1.0,  999.0,   -0.9,   -0.9,   -1.0,   -0.9,   -0.7
2000/06/10 13:40,  999.0,    0.1,    0.2,  999.0,    0.1,    0.3,    0.4,    0.3,    0.3,    0.1,    0.1,   -0.3,    0.5,   -0.3,    0.3,    0.6,    0.6,    1.0,   -1.6,   -2.3,   -2.1,   -1.4,   -1.3,   -1.4,   -1.4,   -1.3,   -1.3,   -1.3,   -1.3,   -1.2,   -1.3,   -1.2,   -1.1,   -1.1,   -1.1,   -1.1,   -1.1,   -1.0,   -1.1,   -1.1,  999.0,   -1.0,   -0.8,   -0.8,   -0.8,   -0.7
2000/06/10 13:50,   -0.0,  999.0,   -0.4,    0.1,   -0.3,   -0.1,   -0.1,  999.0,  999.0,  999.0,  999.0,    0.2,  999.0,    0.5,    0.1,    0.0,  999.0,   -2.0,   -2.0,   -1.7,   -1.6,   -1.5,   -1.4,   -1.5,   -1.2,   -1.2,   -1.0,   -1.2,   -1.0,   -1.0,   -1.0,   -1.1,   -1.1,   -1.1,   -1.1,  999.0,   -1.0,  999.0,   -1.2,   -1.2,   -1.2,   -1.1,   -1.0,   -1.0,   -0.9,   -0.8
2000/06/10 14:00,   -0.0,   -0.0,    0.1,   -0.1,  999.0,   -0.0,   -0.1,    0.3,  999.0,  999.0,   -0.3,    0.1,   -0.2,   -0.0,   -0.1,   -0.3,   -2.0,   -2.5,   -2.1,   -1.9,   -1.5,   -1.4,   -1.3,   -1.4,   -1.3,   -1.2,   -1.2,   -1.2,   -1.0,   -1.1,   -1.1,   -1.1,   -1.1,   -1.1,   -1.1,   -1.2,   -1.0,   -1.0,   -1.0,   -1.1,   -1.0,   -1.0,   -1.0,   -0.9,   -0.8,   -0.7
2000/06/10 14:10,    0.1,   -0.5,   -0.0,    0.5,   -0.1,   -0.4,   -0.6,   -0.4,   -0.5,   -0.3,   -0.0,    0.4,    0.7,    0.2,   -0.0,   -0.8,   -1.7,   -2.5,   -1.5,   -1.2,   -1.3,   -1.3,   -1.3,   -1.2,   -1.1,   -1.1,   -1.1,   -1.2,   -1.1,   -1.1,   -1.1,   -1.0,   -1.1,   -1.2,   -1.1,   -1.1,  999.0,  999.0,   -1.0,   -1.1,   -1.0,   -1.0,   -0.9,   -0.7,   -0.6,   -0.7
2000/06/10 14:20,   -0.1,    0.3,   -0.2,   -0.4,   -0.2,   -0.2,   -0.2,   -0.3,   -0.1,   -0.2,  999.0,    0.2,    0.0,    0.3,   -0.3,   -0.8,   -1.3,   -1.0,   -1.5,   -1.3,   -1.4,   -1.3,   -1.3,   -1.1,   -1.2,   -1.3,   -1.1,   -1.2,   -1.2,   -1.2,   -1.2,   -1.1,   -1.0,   -1.0,   -1.0,   -1.0,   -1.0,  999.0,   -0.9,   -0.9,   -0.9,   -0.7,   -0.7,   -0.7,   -0.7,   -0.7
2000/06/10 14:30,    0.1,    0.0,   -0.2,    0.5,    0.4,    0.4,    0.4,    0.4,    0.3,    0.5,    0.3,    0.5,   -0.1,    0.6,   -0.1,   -0.8,   -1.6,   -1.3,   -1.5,   -1.4,   -1.3,   -1.4,   -1.3,   -1.1,   -1.0,   -1.1,   -1.1,   -1.1,   -1.1,   -1.1,   -1.0,   -1.0,   -0.9,   -0.9,   -1.0,   -0.9,   -0.9,   -0.9,   -0.9,   -0.9,   -0.8,   -0.9,   -0.9,   -0.9,   -0.8,   -0.8
2000/06/10 14:40,   -0.2,    0.3,  999.0,   -0.0,    0.1,    0.2,    0.4,    0.6,    0.4,   -0.4,   -0.9,   -0.2,   -0.7,   -1.1,   -1.5,   -1.7,   -1.4,   -1.4,   -1.4,   -1.3,   -1.4,   -1.3,   -1.3,   -1.2,   -1.2,   -1.2,   -1.1,   -1.1,   -1.1,   -1.0,   -0.9,   -1.0,   -1.0,   -1.0,   -1.0,   -1.2,   -1.0,   -1.0,   -1.0,   -0.9,   -1.0,   -1.0,   -0.9,   -0.8,   -0.7,   -0.7
2000/06/10 14:50,    0.0,    0.0,   -0.1,   -0.2,   -0.0,   -0.2,   -0.5,   -0.4,   -0.3,    0.0,    0.1,    0.4,    0.0,   -0.7,   -1.7,   -1.9,   -1.6,   -1.3,   -1.3,   -1.3,   -1.4,   -1.3,   -1.2,   -1.3,   -1.2,   -1.2,   -1.1,   -1.2,   -1.1,   -1.1,   -1.1,   -1.0,   -1.1,   -1.0,   -1.1,   -1.0,   -0.9,   -1.0,   -0.9,   -0.9,   -0.9,   -0.8,   -0.8,   -0.8,   -0.7,   -0.6
2000/06/10 15:00,   -0.2,  999.0,  999.0,    0.1,   -0.1,  999.0,    0.3,    0.5,   -0.1,    0.1,    0.2,    0.1,    0.6,   -0.9,   -1.3,   -1.3,   -1.4,   -1.3,   -1.6,   -1.4,   -1.3,   -1.4,   -1.4,   -1.4,   -1.3,   -1.2,   -1.2,   -1.1,   -1.0,   -1.1,   -1.0,   -1.1,   -1.1,   -1.0,   -1.1,  999.0,   -1.1,   -1.1,   -1.0,   -1.0,   -1.0,   -1.0,   -1.0,   -1.0,   -0.9,   -0.9
2000/06/10 15:10,   -0.2,  999.0,    0.2,    0.3,    0.3,    0.4,   -0.3,   -2.8,  999.0,   -0.1,   -2.0,   -2.0,   -1.7,   -1.6,   -1.8,   -1.5,   -1.4,   -1.4,   -1.5,   -1.5,   -1.5,   -1.5,   -1.5,   -1.5,   -1.4,   -1.2,   -1.2,   -1.1,   -1.0,   -1.0,   -1.0,   -1.1,   -1.2,   -1.1,   -1.1,   -1.1,   -1.1,   -1.1,   -1.0,   -1.0,   -1.1,   -1.0,   -1.0,   -0.9,   -0.9,   -0.8
2000/06/10 15:20,  999.0,  999.0,    0.2,    0.2,    0.2,    0.0,   -0.9,   -1.0,   -1.7,   -2.4,   -1.9,   -1.8,   -1.7,   -1.4,   -1.5,   -1.5,   -1.5,   -1.6,   -1.7,   -1.5,   -1.4,   -1.4,   -1.3,   -1.5,   -1.5,   -1.4,   -1.5,   -1.3,   -1.1,   -0.9,   -1.4,   -1.0,   -1.0,   -1.3,   -1.3,   -1.0,   -1.0,   -1.1,   -1.0,   -1.0,   -1.0,   -1.0,   -1.0,   -1.0,   -0.9,   -0.9
2000/06/10 15:30,    0.3,    0.7,    0.6,    0.3,    0.6,    0.5,   -2.5,   -2.9,   -2.7,   -3.8,   -2.4,   -1.9,   -2.0,   -1.8,   -1.7,   -1.7,   -1.8,   -1.7,   -1.8,   -1.7,   -1.8,   -1.6,   -1.3,   -1.3,   -1.1,   -1.1,   -1.0,   -1.1,  999.0,   -1.0,   -1.1,   -0.9,   -1.2,   -1.1,   -1.1,   -1.0,   -1.1,   -1.0,   -1.1,   -1.0,   -0.9,   -0.9,   -0.9,   -0.9,   -0.8,   -0.7
2000/06/10 15:40,   -0.5,    0.0,   -0.0,    0.3,   -0.3,   -1.0,   -3.1,   -3.1,   -2.7,   -3.3,   -2.2,   -1.8,   -1.8,   -1.8,   -1.7,   -1.7,   -1.7,   -1.5,   -1.3,   -1.4,   -1.4,   -1.4,   -1.3,   -1.2,   -1.1,   -1.0,   -1.0,   -0.9,   -1.0,   -1.0,   -1.0,   -1.0,   -1.0,   -1.0,   -1.0,   -1.0,   -0.9,   -1.0,   -0.9,   -0.9,   -0.8,   -0.8,   -0.8,   -0.8,   -0.7,   -0.7
2000/06/10 15:50,    0.0,    0.4,   -3.1,   -3.4,   -3.1,   -2.6,   -2.5,   -3.5,   -3.4,   -3.3,   -2.1,   -1.8,   -1.4,   -1.4,   -1.2,   -1.1,   -1.1,   -1.3,   -1.3,   -1.3,   -1.2,   -1.1,   -1.1,   -1.1,   -1.1,   -1.1,   -1.1,   -0.9,   -0.9,   -1.0,   -1.1,  999.0,   -1.1,   -1.1,   -1.1,   -1.1,   -1.0,   -1.0,   -0.9,   -1.0,   -0.9,   -0.9,  999.0,   -0.8,   -0.8,   -0.7
2000/06/10 16:00,   -2.8,   -1.8,   -3.8,   -3.8,   -4.1,   -3.8,   -4.1,   -3.8,   -3.4,   -3.0,   -2.5,   -2.3,   -2.1,   -2.0,   -1.5,   -1.5,   -1.3,   -1.3,   -1.2,   -1.2,   -1.1,   -1.2,   -1.2,   -1.1,   -1.0,   -1.1,   -1.0,   -1.0,   -0.9,   -0.9,   -0.9,   -0.9,   -1.0,   -1.0,   -0.9,   -0.9,   -0.9,   -0.9,   -0.9,   -0.8,   -0.8,   -0.8,   -0.8,   -0.8,   -0.7,   -0.7
2000/06/10 16:10,   -3.2,   -3.4,   -2.6,   -3.3,   -3.0,   -3.3,   -3.6,   -3.4,   -3.3,   -3.5,   -2.3,   -2.2,   -1.8,   -1.6,   -1.5,   -1.6,   -1.8,   -1.9,   -1.7,   -1.4,   -1.2,   -1.1,   -1.1,   -1.1,   -1.1,   -1.0,   -1.0,   -0.9,   -0.8,   -0.8,   -0.9,   -0.9,   -0.9,   -0.9,   -0.9,   -0.8,   -0.8,   -0.7,   -0.8,   -0.7,   -0.7,   -0.7,   -0.6,   -0.6,   -0.7,   -0.6
2000/06/10 16:20,   -3.6,   -3.6,   -2.8,   -3.2,   -3.4,   -3.5,   -3.8,   -3.6,   -3.5,   -2.7,   -1.4,   -0.9,   -1.0,   -1.8,   -1.9,   -1.8,   -1.9,   -1.9,   -1.5,   -1.6,   -1.5,   -1.3,   -1.3,   -1.1,   -1.1,   -1.0,   -0.9,   -0.9,   -0.9,   -0.9,   -0.9,   -1.0,   -1.1,   -1.0,   -0.9,   -1.0,   -1.0,   -0.9,   -0.9,   -0.9,   -0.9,   -0.8,   -0.8,   -0.8,   -0.8,   -0.7
2000/06/10 16:30,   -3.7,   -3.5,   -3.1,   -3.1,   -3.1,   -3.4,   -3.1,   -3.5,   -4.2,   -3.9,   -1.9,   -1.9,   -2.2,   -1.6,   -1.3,   -1.4,   -1.4,   -1.4,   -1.3,   -1.4,   -1.4,   -1.4,   -1.4,   -1.2,   -1.2,   -1.2,   -1.2,   -1.1,   -1.1,   -1.2,   -1.2,   -1.2,   -1.2,   -1.2,   -1.1,   -1.1,   -1.0,   -1.0,   -1.0,   -1.0,   -1.0,   -0.9,   -0.8,   -0.8,   -0.8,   -0.7
2000/06/10 16:40,   -3.9,   -3.9,   -3.4,   -3.2,   -3.0,   -3.7,   -3.9,   -4.4,   -4.5,   -3.4,   -2.2,   -1.4,   -1.4,   -1.5,   -1.2,   -1.1,   -1.1,   -1.2,   -1.2,   -1.4,   -1.3,   -1.2,   -1.2,   -1.1,   -1.1,   -1.1,   -1.1,   -1.0,   -1.0,   -0.9,   -0.9,   -0.9,   -0.9,   -1.0,   -0.9,   -0.8,   -0.7,   -0.8,   -0.7,   -0.5,   -0.6,   -0.6,   -0.5,   -0.4,   -0.4,   -0.4
2000/06/10 16:50,  999.0,  999.0,  999.0,  999.0,   -2.6,   -2.6,   -2.8,   -2.9,   -3.1,   -2.7,   -1.4,   -1.2,   -1.2,   -1.2,   -1.4,   -1.5,   -1.6,   -1.5,   -1.5,   -1.6,   -1.6,   -1.6,   -1.4,   -1.3,   -1.3,   -1.3,   -1.2,   -1.2,   -1.2,   -1.2,   -1.1,   -1.0,   -1.1,   -1.0,   -0.9,   -0.9,   -0.8,   -0.7,   -0.7,  999.0,   -0.7,   -0.7,   -0.7,   -0.6,   -0.6,   -0.7
2000/06/10 17:00,  999.0,  999.0,    0.5,    0.5,   -2.5,   -2.2,   -2.7,   -2.7,   -2.8,   -2.7,   -1.8,   -1.3,   -1.2,   -1.4,   -1.6,   -1.9,   -1.6,   -1.6,   -1.5,   -1.6,   -1.5,   -1.4,   -1.2,   -1.2,   -1.2,   -1.1,   -1.1,   -1.0,   -1.0,   -1.0,   -1.0,   -0.9,  999.0,  999.0,   -0.9,   -0.9,   -0.8,   -0.7,   -0.7,   -0.7,   -0.6,   -0.6,   -0.5,   -0.5,   -0.5,   -0.5
2000/06/10 17:10,  999.0,  999.0,  999.0,  999.0,   -1.4,   -2.9,   -2.8,   -2.7,   -3.1,   -2.6,   -1.5,   -1.3,   -1.3,   -1.2,   -1.3,  999.0,   -1.3,   -1.3,   -1.1,   -1.1,   -1.2,   -1.2,   -1.2,   -1.1,   -1.1,   -1.1,   -1.0,   -1.0,   -1.0,   -0.9,   -0.9,  999.0,   -0.9,   -0.8,   -0.7,   -0.8,   -0.6,   -0.6,   -0.7,   -0.6,   -0.6,   -0.6,   -0.6,   -0.5,   -0.5,   -0.5
2000/06/10 17:20,   -0.3,  999.0,  999.0,   -3.5,   -3.2,   -3.2,   -3.2,   -3.2,   -3.1,   -2.6,   -1.4,   -1.6,   -1.4,   -1.9,   -1.7,   -1.7,   -1.4,   -1.4,   -1.4,   -1.3,   -1.2,   -1.2,   -1.2,   -1.1,   -1.1,   -1.0,   -1.0,   -0.9,   -0.8,   -0.9,   -0.8,   -0.9,   -0.8,   -0.8,   -0.7,   -0.7,   -0.7,   -0.8,   -0.7,   -0.7,   -0.7,   -0.7,   -0.7,   -0.7,   -0.5,   -0.6
2000/06/10 17:30,   -3.3,   -3.2,  999.0,   -3.5,   -3.5,   -3.5,   -3.6,   -3.8,   -4.0,   -3.1,   -1.7,   -1.4,   -1.4,   -1.2,   -1.1,   -1.4,   -1.4,   -1.4,   -1.4,   -1.3,   -1.3,   -1.3,   -1.3,   -1.3,   -1.2,   -1.1,   -1.1,   -1.0,   -1.0,   -0.9,   -0.8,   -1.0,   -0.9,   -0.9,   -1.0,   -1.0,   -1.0,   -0.9,   -1.0,   -0.8,   -0.8,   -0.9,   -0.8,   -0.8,   -0.6,   -0.7
2000/06/10 17:40,   -4.6,  999.0,   -4.5,   -4.1,   -4.2,   -4.2,   -4.3,   -4.4,   -4.2,   -2.9,   -1.3,   -1.3,   -1.3,   -1.6,   -1.7,   -1.7,   -1.7,   -1.4,   -1.3,   -1.3,   -1.2,   -1.3,   -1.3,   -1.3,   -1.3,   -1.3,   -1.2,   -1.2,   -1.1,   -1.1,   -1.0,   -1.1,   -0.9,   -1.0,  999.0,   -1.0,   -1.0,   -1.0,   -0.9,   -0.8,   -0.9,   -0.8,   -0.7,   -0.7,   -0.7,   -0.6
2000/06/10 17:50,   -3.2,   -3.3,   -3.2,   -3.4,   -3.8,   -3.5,   -3.7,   -4.0,   -4.0,   -2.6,   -1.5,   -1.3,   -1.4,   -1.5,   -1.7,   -1.7,   -1.5,   -1.3,   -1.3,   -1.2,   -1.1,   -1.2,   -1.2,   -1.2,   -1.1,   -1.1,   -1.0,   -0.9,   -0.9,  999.0,  999.0,  999.0,  999.0,  999.0,  999.0,   -1.0,   -1.0,   -1.1,   -1.0,   -0.9,   -0.9,   -0.8,   -0.8,   -0.7,   -0.7,   -0.7
2000/06/10 18:00,   -3.7,   -4.2,   -4.3,   -4.5,   -4.4,   -4.3,   -4.3,   -4.4,   -3.9,   -2.7,   -1.4,   -1.2,   -1.3,   -1.4,   -1.9,   -1.7,   -1.5,   -1.4,   -1.3,   -1.3,   -1.4,   -1.3,   -1.3,   -1.3,   -1.2,   -1.1,   -1.1,   -1.0,   -1.1,   -1.1,   -1.2,   -1.2,   -1.2,   -1.3,   -1.2,   -1.2,   -1.1,   -1.1,   -1.1,   -1.1,   -1.0,   -0.9,   -0.9,   -0.8,   -0.7,   -0.7
2000/06/10 18:10,   -4.1,   -4.4,   -4.3,   -4.1,   -4.5,   -4.2,   -4.3,   -4.1,   -4.3,   -2.8,   -1.5,   -1.3,   -1.6,   -1.7,   -1.9,   -1.9,   -2.0,  999.0,   -1.4,   -1.3,   -1.3,   -1.3,   -1.3,   -1.3,   -1.2,   -1.2,   -1.2,   -1.1,   -1.1,   -1.1,   -1.2,   -1.1,   -1.2,   -1.1,   -1.1,   -1.1,   -1.1,   -1.2,   -1.0,   -1.0,   -0.9,   -0.9,   -0.9,   -0.8,   -0.9,   -0.8
2000/06/10 18:20,  999.0,   -4.7,   -4.6,   -4.2,   -4.6,   -4.6,   -4.8,   -5.0,   -5.2,   -3.2,   -1.9,   -1.3,   -1.7,   -1.7,   -1.8,  999.0,   -1.7,   -1.5,   -1.5,   -1.5,   -1.4,   -1.4,   -1.4,   -1.3,   -1.2,   -1.2,   -1.1,   -1.1,   -1.2,   -1.1,   -1.1,   -1.0,   -1.2,   -1.1,   -1.1,   -1.1,   -1.2,   -1.0,   -1.0,   -1.0,   -1.0,   -0.9,   -0.9,   -0.8,   -0.8,   -0.7
2000/06/10 18:30,   -4.9,   -4.7,   -5.1,   -5.1,   -5.3,   -5.3,   -5.2,   -5.8,   -5.7,   -3.3,   -2.1,   -1.8,   -1.6,   -1.6,   -1.5,   -1.6,   -1.6,  999.0,   -1.3,   -1.2,   -1.3,   -1.2,   -1.3,   -1.2,   -1.2,   -1.2,   -1.1,   -1.1,   -1.1,   -1.1,   -1.1,   -1.0,   -1.1,   -1.1,   -1.0,   -1.1,   -1.0,   -1.0,   -1.1,   -1.0,   -1.0,   -0.9,   -0.8,   -0.8,   -0.7,   -0.6
2000/06/10 18:40,   -4.6,   -4.5,   -4.6,   -5.3,   -5.0,   -5.0,   -4.9,   -4.9,   -4.9,   -3.0,   -1.8,   -1.8,   -1.8,   -1.9,   -2.2,   -2.0,   -1.7,   -1.6,   -1.4,   -1.2,   -1.2,   -1.3,   -1.3,   -1.3,   -1.2,   -1.2,   -1.2,   -1.1,   -1.1,   -1.0,   -1.1,   -1.1,   -1.1,   -1.1,   -1.1,   -1.1,   -1.1,   -1.1,   -1.1,   -1.1,   -1.1,   -1.0,   -1.0,   -1.0,   -0.9,   -0.9
2000/06/10 18:50,   -5.1,   -5.2,   -5.2,   -5.0,   -5.1,   -5.1,   -5.2,   -5.4,   -5.5,   -2.7,   -1.7,   -1.6,   -1.6,   -1.8,   -2.0,   -1.9,   -1.6,   -1.4,   -1.3,   -1.3,   -1.2,   -1.2,   -1.2,   -1.2,   -1.2,   -1.2,   -1.2,   -1.1,   -1.1,   -1.0,   -1.0,   -1.1,   -1.1,   -1.0,   -1.0,   -1.0,   -1.0,   -0.9,   -0.9,   -0.9,   -0.8,   -0.8,   -0.7,   -0.6,   -0.6,   -0.6
2000/06/10 19:00,   -5.6,   -5.5,   -5.6,   -5.4,   -5.6,   -5.8,   -5.9,   -5.8,   -5.8,   -2.7,   -1.7,   -1.6,   -1.7,   -1.8,   -1.8,   -1.4,   -1.3,   -1.2,   -1.2,   -1.2,   -1.2,   -1.2,   -1.2,   -1.2,   -1.2,   -1.2,   -1.1,   -1.1,   -1.0,   -1.0,   -0.9,   -1.0,   -1.0,   -1.1,   -1.0,   -1.0,   -1.0,   -0.9,   -0.9,   -0.8,   -0.9,   -0.8,   -0.8,   -0.8,   -0.7,   -0.7
2000/06/10 19:10,   -5.0,   -5.0,   -5.2,   -5.1,   -4.9,   -4.9,   -4.8,   -4.8,   -4.8,   -2.7,   -1.9,   -2.0,   -2.3,   -2.2,   -2.0,   -1.8,   -1.5,   -1.2,   -0.9,   -1.0,   -1.0,   -1.1,   -1.1,   -1.2,   -1.2,   -1.2,   -1.2,   -1.2,   -1.1,   -1.1,   -1.2,   -1.1,   -1.2,   -1.1,   -1.1,   -1.1,   -1.1,   -1.0,   -0.9,   -0.9,   -0.8,   -0.8,   -0.8,   -0.8,   -0.7,   -0.7
2000/06/10 19:20,   -4.5,   -4.3,   -4.4,   -4.3,   -4.0,   -3.9,   -4.0,   -4.1,   -3.8,   -2.4,   -1.3,   -1.5,   -1.7,   -1.6,   -1.6,   -1.5,   -1.2,   -1.3,   -1.2,   -1.3,   -1.2,   -1.2,   -1.2,   -1.2,   -1.2,   -1.1,   -1.1,   -1.0,   -1.0,   -1.0,   -1.0,   -1.1,   -1.1,   -1.1,   -1.1,   -1.0,   -1.0,   -1.0,   -0.8,   -0.8,   -0.7,   -0.8,   -0.7,   -0.7,   -0.6,   -0.6
2000/06/10 19:30,   -3.5,   -3.5,   -3.8,   -3.8,   -3.7,   -3.7,   -3.8,   -3.9,   -3.7,   -2.2,   -1.6,   -1.7,   -1.9,   -1.9,   -1.7,   -1.6,   -1.4,   -1.3,   -1.3,   -1.3,   -1.3,   -1.3,   -1.3,   -1.2,   -1.1,   -1.1,   -1.1,   -1.2,   -1.1,   -1.0,   -1.0,   -1.0,   -1.0,   -0.9,   -0.9,   -0.8,   -0.9,   -0.7,   -0.7,   -0.7,   -0.6,  999.0,   -0.6,   -0.5,   -0.6,   -0.5
2000/06/10 19:40,   -3.3,   -3.2,   -3.3,   -3.3,   -3.3,   -3.4,   -3.5,   -3.6,   -3.6,   -2.4,   -1.6,  999.0,   -1.8,   -1.8,   -1.4,   -1.4,   -1.4,   -1.4,   -1.3,   -1.4,   -1.3,   -1.3,   -1.3,   -1.2,   -1.2,   -1.1,   -1.0,   -1.0,   -0.8,   -0.9,   -0.9,   -0.9,   -0.9,   -0.8,   -0.8,   -0.8,   -0.8,   -0.8,   -0.8,   -0.7,   -0.7,   -0.6,   -0.6,   -0.6,   -0.6,   -0.6
2000/06/10 19:50,   -3.2,   -3.4,   -3.5,   -3.6,  999.0,   -3.7,   -4.0,   -4.0,   -4.0,  999.0,   -1.6,  999.0,   -1.9,  999.0,   -1.9,   -1.6,   -1.5,   -1.4,   -1.3,   -1.3,   -1.3,   -1.2,   -1.2,   -1.1,   -1.1,   -1.1,   -1.0,   -1.0,   -1.0,   -0.9,   -1.0,   -1.1,   -1.1,   -1.1,   -1.1,   -1.1,   -1.0,   -1.0,   -0.9,   -0.9,   -0.7,   -0.8,  999.0,   -0.6,   -0.6,   -0.6
2000/06/10 20:00,   -2.9,   -3.0,   -2.7,   -2.9,   -3.0,   -3.0,   -3.0,   -3.0,  999.0,   -2.2,  999.0,   -1.6,   -1.5,   -1.7,   -1.6,   -1.5,   -1.4,   -1.3,   -1.3,   -1.3,   -1.3,   -1.3,   -1.3,   -1.2,   -1.2,   -1.2,   -1.1,   -1.1,   -1.0,   -1.0,   -0.9,   -1.0,   -1.1,   -1.2,   -1.3,   -1.2,   -1.2,   -1.1,   -1.1,   -1.0,   -1.0,   -0.9,   -0.8,   -0.8,   -0.7,   -0.7
2000/06/10 20:10,  999.0,  999.0,   -3.2,   -3.2,   -3.3,   -3.3,   -3.1,   -3.0,   -3.1,   -2.2,   -1.2,   -1.2,   -1.1,   -1.4,   -1.6,   -1.4,   -1.4,   -1.5,   -1.5,   -1.5,  999.0,   -1.4,   -1.4,   -1.3,   -1.3,   -1.2,   -1.2,   -1.1,   -1.1,   -1.0,   -1.0,   -1.1,  999.0,   -1.2,   -1.2,   -1.3,   -1.2,   -1.1,   -1.1,   -1.0,   -0.9,  999.0,   -0.8,   -0.7,   -0.7,   -0.6
2000/06/10 20:20,   -3.1,   -3.5,   -3.7,   -3.8,   -4.0,   -4.2,   -4.1,   -4.2,   -4.1,   -2.1,   -1.6,   -1.4,   -1.7,   -1.9,   -1.7,   -1.6,   -1.4,   -1.4,   -1.3,   -1.5,   -1.4,   -1.5,   -1.4,   -1.4,   -1.3,   -1.2,   -1.2,   -1.2,   -1.1,   -1.0,   -1.1,   -1.1,   -1.1,   -1.1,   -1.1,   -1.0,   -1.0,   -0.9,   -1.0,   -0.8,   -0.7,   -0.7,   -0.6,  999.0,   -0.5,   -0.3
2000/06/10 20:30,   -4.1,   -4.2,   -4.4,   -4.5,   -4.5,   -4.5,   -4.4,   -4.7,   -4.7,   -2.4,   -1.8,   -1.8,   -1.9,   -1.7,   -1.6,   -1.5,   -1.4,   -1.3,   -1.4,  999.0,   -1.4,   -1.4,   -1.3,   -1.3,   -1.3,   -1.2,   -1.1,   -1.0,   -1.0,   -0.9,   -0.9,   -1.0,   -1.1,   -1.0,   -1.0,   -1.0,   -0.9,   -0.8,   -0.8,   -0.7,   -0.8,   -0.7,   -0.6,   -0.5,   -0.5,   -0.4
2000/06/10 20:40,   -4.7,   -4.7,   -4.7,   -4.9,   -5.0,   -5.1,   -5.2,   -5.4,   -4.6,   -2.1,   -1.8,  999.0,   -1.9,  999.0,   -1.7,   -1.6,   -1.5,   -1.4,   -1.4,   -1.4,   -1.4,   -1.4,   -1.4,   -1.3,   -1.2,   -1.2,   -1.1,   -1.0,   -1.0,   -0.9,   -1.0,   -1.1,   -1.1,   -1.0,   -1.0,   -1.1,   -1.1,   -1.0,   -1.0,   -1.0,   -0.8,   -0.8,   -0.7,   -0.8,   -0.7,   -0.6
2000/06/10 20:50,   -5.1,   -5.1,   -4.9,   -5.3,   -5.2,   -5.1,   -5.4,   -5.4,   -4.9,   -2.5,   -1.8,  999.0,   -1.8,  999.0,   -1.6,   -1.6,   -1.5,   -1.4,   -1.5,   -1.5,   -1.5,   -1.4,   -1.4,   -1.2,   -1.2,   -1.1,   -1.1,   -1.0,   -1.0,   -1.0,   -1.0,   -1.1,   -1.1,   -1.2,   -1.0,   -1.2,   -1.1,   -1.1,   -1.0,  999.0,   -0.8,   -0.8,   -0.8,   -0.7,   -0.6,   -0.5
2000/06/10 21:00,   -4.7,   -4.7,   -4.6,   -4.8,   -4.8,   -4.9,   -4.8,   -4.8,   -4.7,  999.0,  999.0,  999.0,   -1.8,   -1.6,   -1.4,   -1.4,   -1.3,   -1.3,   -1.4,   -1.4,   -1.3,   -1.3,   -1.2,   -1.2,   -1.1,   -1.1,   -1.1,   -1.1,   -1.1,   -1.2,   -1.2,   -1.2,   -1.3,   -1.2,   -1.2,   -1.2,   -1.2,   -1.2,   -1.0,   -0.9,   -0.9,   -0.9,   -0.8,   -0.7,   -0.4,   -0.4
2000/06/10 21:10,   -4.3,   -4.5,   -4.5,   -4.7,   -4.8,   -4.9,   -4.9,   -5.0,   -5.0,   -2.2,  999.0,   -1.6,   -1.7,  999.0,   -1.4,   -1.4,   -1.4,   -1.4,   -1.5,   -1.5,   -1.5,   -1.5,   -1.4,   -1.3,   -1.2,   -1.2,   -1.1,   -1.1,   -1.0,   -1.0,   -1.0,   -1.0,   -1.0,   -1.1,   -1.0,   -1.0,   -1.0,   -0.9,   -1.0,   -0.8,   -0.7,   -0.8,   -0.7,   -0.5,   -0.6,  999.0
2000/06/10 21:20,   -4.7,   -4.8,   -5.0,   -5.1,   -5.1,   -5.2,   -5.2,   -5.2,   -4.9,   -2.3,   -1.8,   -1.9,   -1.9,   -1.9,   -1.8,   -1.6,   -1.5,   -1.5,   -1.5,   -1.5,   -1.5,   -1.5,   -1.4,   -1.3,   -1.2,   -1.3,   -1.1,   -1.1,   -0.9,   -0.8,   -0.7,   -0.8,   -0.9,   -1.0,   -1.0,   -0.8,   -0.8,   -0.8,   -0.7,   -0.9,   -0.7,   -0.7,   -0.7,   -0.6,   -0.4,   -0.8
2000/06/10 21:30,   -5.0,   -4.9,   -4.7,   -4.9,   -5.0,   -5.1,   -5.2,   -5.3,   -4.5,   -2.3,   -2.2,   -2.1,   -1.9,   -1.8,   -1.7,   -1.5,   -1.5,   -1.5,   -1.4,   -1.5,   -1.5,   -1.4,   -1.4,   -1.4,   -1.3,   -1.2,   -1.1,   -1.1,   -0.9,   -0.8,   -0.7,   -0.8,   -0.8,   -0.9,   -0.9,   -0.8,   -0.9,   -0.8,   -0.8,   -0.8,   -0.9,   -0.9,   -0.8,   -0.8,   -0.7,   -0.7
2000/06/10 21:40,   -4.8,   -4.8,   -4.9,   -5.1,   -5.2,   -5.3,   -5.3,   -5.2,   -4.8,   -3.6,   -3.1,   -2.2,  999.0,   -1.7,   -1.5,   -1.4,   -1.3,   -1.4,   -1.4,   -1.4,   -1.4,   -1.3,   -1.3,   -1.3,   -1.2,   -1.2,   -1.1,   -1.0,   -0.9,   -0.8,   -0.8,   -0.8,   -1.0,   -1.0,   -1.0,   -1.0,   -1.1,   -1.0,   -1.1,   -0.9,   -1.0,   -1.0,   -1.0,   -0.9,   -0.9,   -0.8
2000/06/10 21:50,   -4.4,   -4.2,   -4.2,   -4.3,   -4.3,   -4.4,   -4.5,   -4.5,   -4.5,   -4.4,   -4.4,   -3.1,  999.0,   -1.5,   -1.3,   -1.2,   -1.3,   -1.3,   -1.3,   -1.5,   -1.5,   -1.5,   -1.4,   -1.3,   -1.3,   -1.2,   -1.1,   -1.0,   -0.8,   -0.8,   -0.7,   -0.8,   -0.9,   -1.0,   -1.0,   -1.0,   -1.1,   -1.1,   -1.1,   -1.0,   -0.9,   -0.9,   -0.9,   -0.8,   -0.8,   -0.7
2000/06/10 22:00,   -3.6,   -3.6,   -3.6,   -3.6,   -3.7,   -4.2,   -4.1,   -4.1,   -4.5,   -4.8,   -4.7,   -2.9,   -1.5,   -1.8,   -1.5,   -1.5,   -1.5,   -1.6,   -1.5,   -1.7,   -1.6,   -1.5,   -1.5,   -1.4,   -1.2,   -1.2,   -1.1,   -1.0,   -0.9,   -0.9,   -0.8,   -0.9,   -1.0,   -1.1,   -1.0,   -1.1,   -1.0,   -1.1,   -0.9,   -0.9,   -0.9,   -0.9,   -0.8,   -0.8,   -0.7,   -0.7
2000/06/10 22:10,   -4.7,   -4.6,   -4.4,   -4.4,   -4.5,   -4.6,   -4.6,   -4.7,   -4.1,  999.0,   -3.1,   -2.0,   -1.6,   -1.8,   -1.6,   -1.6,   -1.6,   -1.6,  999.0,   -1.6,   -1.5,   -1.4,   -1.3,   -1.3,   -1.2,   -1.1,   -1.0,   -0.9,   -0.9,   -0.8,   -0.9,   -0.9,   -0.9,   -1.0,   -1.0,   -1.0,   -0.9,   -0.9,   -0.8,   -0.8,   -0.9,   -0.9,   -0.8,   -0.8,   -0.7,   -0.6
2000/06/10 22:20,   -5.2,   -5.4,   -5.3,   -5.3,   -5.4,   -5.6,   -5.5,   -5.6,   -4.9,   -4.0,   -3.8,   -2.6,   -2.2,   -2.2,   -2.0,   -1.8,   -1.7,   -1.6,   -1.6,   -1.6,   -1.5,   -1.4,   -1.3,   -1.3,   -1.2,   -1.1,   -1.1,   -1.0,   -0.9,   -0.9,   -0.9,   -0.9,   -1.0,   -0.9,   -0.9,   -0.9,   -0.9,   -0.8,   -0.8,   -0.7,   -0.7,   -0.7,   -0.6,   -0.6,   -0.7,   -0.6
2000/06/10 22:30,   -5.3,   -5.2,   -5.2,   -5.2,   -5.4,   -5.7,   -5.9,   -5.9,   -5.9,   -5.8,   -4.5,   -2.3,   -1.7,   -1.6,   -1.5,   -1.5,   -1.5,   -1.5,  999.0,   -1.5,   -1.4,   -1.3,   -1.2,   -1.1,   -1.0,   -1.0,   -0.9,   -0.9,   -0.9,   -0.9,   -0.9,   -0.9,   -0.9,   -1.0,   -1.0,   -0.9,   -0.8,   -0.8,   -0.8,   -0.8,   -0.7,   -0.7,   -0.8,   -0.7,   -0.6,   -0.6
2000/06/10 22:40,   -5.4,   -5.4,   -5.5,   -5.7,   -5.8,   -5.9,   -6.1,   -6.2,   -6.3,   -6.4,   -4.7,   -2.2,   -1.6,   -1.5,   -1.4,   -1.4,   -1.4,   -1.4,   -1.5,   -1.4,   -1.4,   -1.3,   -1.3,   -1.2,   -1.1,   -1.1,   -1.0,   -1.0,   -1.0,   -1.0,   -1.0,   -1.0,   -1.0,   -1.0,   -1.0,   -1.0,   -1.0,   -1.0,   -0.9,   -0.9,   -0.8,   -0.8,   -0.7,   -0.6,   -0.7,   -0.6
2000/06/10 22:50,   -5.9,   -6.1,  999.0,   -6.3,   -6.4,   -6.5,   -6.5,   -6.5,   -6.6,   -6.8,   -4.5,  999.0,  999.0,   -1.5,   -1.4,   -1.5,   -1.5,   -1.5,   -1.4,   -1.4,   -1.4,   -1.3,   -1.2,   -1.1,   -1.1,   -1.0,   -1.0,   -1.0,   -1.0,   -1.0,   -1.0,   -1.1,   -1.1,   -1.1,   -1.1,   -1.1,   -1.1,   -1.1,   -1.0,   -1.0,   -0.9,   -0.7,   -0.7,   -0.8,   -0.7,   -0.6
2000/06/10 23:00,   -6.0,   -6.0,   -6.0,   -6.0,   -6.1,   -6.1,   -6.4,   -6.4,   -6.4,   -6.5,   -3.9,   -1.8,  999.0,   -1.5,   -1.5,   -1.5,   -1.4,  999.0,   -1.5,   -1.5,   -1.4,   -1.3,   -1.2,   -1.1,   -1.1,   -1.0,   -1.0,   -1.0,   -1.0,   -1.0,   -1.0,   -1.0,   -1.0,   -1.0,   -1.0,   -1.0,   -0.9,   -0.9,   -1.0,   -0.8,   -0.8,   -0.8,   -0.7,   -0.7,   -0.6,   -0.6
2000/06/10 23:10,   -6.4,   -6.5,   -6.6,   -6.8,   -6.9,   -7.0,   -7.1,   -7.2,   -7.5,   -7.0,   -3.7,  999.0,  999.0,   -1.5,   -1.5,   -1.5,   -1.5,  999.0,   -1.6,   -1.6,   -1.4,   -1.4,   -1.4,   -1.2,   -1.2,   -1.1,   -1.1,   -1.0,   -1.0,   -0.9,   -1.0,   -1.0,   -1.1,   -1.1,   -1.0,   -1.1,   -0.9,   -1.0,   -0.8,   -0.9,   -0.9,   -0.9,   -0.8,   -0.7,   -0.8,   -0.6
2000/06/10 23:20,   -6.1,   -6.1,   -6.3,   -6.3,   -6.2,   -6.5,   -6.3,   -6.3,   -6.8,   -6.7,   -2.9,   -1.7,   -1.5,   -1.5,   -1.5,   -1.6,   -1.6,   -1.6,   -1.5,   -1.5,   -1.4,   -1.4,   -1.3,   -1.2,   -1.2,   -1.1,   -1.0,   -1.0,   -1.0,   -1.0,   -1.0,   -1.0,   -1.1,   -1.0,   -1.0,   -1.0,   -1.0,   -1.0,   -1.0,   -1.0,   -1.0,   -0.9,   -0.9,   -0.9,   -0.8,   -0.8
2000/06/10 23:30,   -6.0,   -6.1,   -6.0,   -6.1,   -6.4,   -6.6,   -6.5,   -6.6,   -6.7,   -6.2,  999.0,   -1.7,   -1.5,   -1.4,   -1.5,   -1.4,  999.0,   -1.5,   -1.5,   -1.4,   -1.3,   -1.4,   -1.3,   -1.2,   -1.1,   -1.1,   -1.1,   -1.0,   -1.0,   -1.0,   -1.0,   -1.0,   -1.1,   -1.1,   -1.2,   -1.1,   -1.0,   -1.1,   -0.9,   -1.0,   -1.0,   -0.9,   -0.9,   -0.8,   -0.8,   -0.8
2000/06/10 23:40,   -6.4,   -6.5,   -6.7,   -6.9,   -6.8,   -6.9,   -6.9,   -7.0,   -7.0,   -5.7,   -2.7,  999.0,   -1.7,   -1.6,   -1.6,   -1.6,   -1.6,   -1.6,   -1.5,   -1.4,   -1.4,   -1.3,   -1.2,   -1.1,   -1.1,   -1.0,   -1.0,   -1.0,   -0.9,   -0.8,   -0.7,   -0.9,   -0.9,   -0.9,   -0.9,   -0.8,   -0.7,   -0.8,   -0.9,   -0.8,   -0.8,   -0.8,   -0.7,   -0.7,   -0.6,   -0.8
2000/06/10 23:50,   -6.3,   -6.4,   -6.4,   -6.5,   -6.7,   -7.0,   -7.2,   -7.7,   -8.1,   -5.2,   -2.3,   -1.6,   -1.5,   -1.5,   -1.6,   -1.5,   -1.6,   -1.6,   -1.5,   -1.5,   -1.5,   -1.5,   -1.4,   -1.3,   -1.2,   -1.2,   -1.1,   -1.0,   -0.9,   -0.9,   -0.7,   -0.7,   -0.8,   -0.7,   -0.7,   -0.7,   -0.6,   -0.7,   -0.8,   -0.9,   -1.0,   -0.8,  999.0,   -0.9,  999.0,   -0.7
